Espace membre
Imprimable
Wissant, 09-10/09/2017, BEL - Trail de la Côte d'Opale
Liste des rapports > 14km - Classement
Recherche: Page: [1]
118 Entrées
 
Les réclamations ne sont plus acceptées, les résultats sont considérés comme définitifs.
RangNrLicenceNomAgeIOCEquipeTempsTkmMoy.ScrLocalité
1.8725FPRUVOST Nathalie50FRA1:14:115:18 11.33209
2.8232FRECLUS Sylvie55FRAAUVERS ATHLÉTISME1:14:285:20 11.28215
3.9281FALLUIN Marie Noelle52FRA1:14:565:22 11.21222
4.8270FDUCORROY Hélène50FRAAMIS RUNNERS DU GRAND NOR1:15:245:24 11.14234
5.8257FBERA Catherine54FRA1:16:455:29 10.95250
6.9936FDE PESTEL Hélène50FRAFROIDCHAPELLE1:18:385:37 10.68281
7.9029FKODER Corinne50FRA1:24:536:04 9.90421
8.8677FMASELIS Catharina54FRA1:25:056:05 9.87425
9.9167FFROIDURE Nadine53FRA1:26:376:12 9.70462
10.9118FCARBALLO Cecile50FRACOT TRITH1:28:266:19 9.50509
11.8008FLEGRAND Michele59DECATHLON ST-MARTIN1:30:426:29 9.26553
12.8704FMEUNIER Helene52FRA1:31:006:30 9.23559
13.8318FMONTEUUIS Corinne57FRARIO TINTO1:34:126:44 8.92629
14.9841FHEMPTE Sylvie52BELVELAINES1:34:536:47 8.85652
15.6414FBRIAUX Christine50FRALES FURIEUX DE L'AMIENOIS1:35:006:48 8.84654
16.7404FDE RUYCK Hilde51BELACKO1:35:126:48 8.82664
17.8087FSANCHEZ Magali54FRA1:35:166:49 8.82665
18.6497FVAN HAUTE Suzy54BELACKO1:35:166:49 8.82666
19.9753FJACQUEMART Anne52BELCHARLETEAM1:36:296:54 8.71691
20.8196FBOURDIN Fabienne58FRA1:37:406:59 8.60727
21.9242FDE WAEGENAERE Valérie50FRA1:38:047:01 8.57736
22.9014FTENZA Nathalie56FRACACB1:38:127:01 8.55740
23.8297FGOUBET Valérie51FRA1:38:197:02 8.54741
24.8986FDUBOIS Corinne54FRA1:39:027:05 8.48759
25.9120FVASSEUR Emmanuelle54FRA1:39:517:08 8.41784
26.9088FBOURDON Roselyne59FRAGYM POUR TOUS1:39:517:08 8.41785
27.8917FJACQUEMIN Christiane58BELJE COURS À INCOURT1:40:217:11 8.37795
28.8003FPAPIN Dominique56DECATHLON ST-MARTIN1:41:247:15 8.28828
29.9526FSIX Véronique53FRAJCL1:41:527:17 8.25836
30.10075FTIBERGHIEN Catherine54BELJCL1:41:537:17 8.25837
31.8707FLEVRAT Sylvie50FRA1:42:507:21 8.17859
32.9592FCALONNE Marie Hélène54FRA1:43:117:23 8.14864
33.9246FRYSSEN Françoise54FRA1:44:167:27 8.06902
34.8793FPAINSET Nathalie52FRA1:44:247:28 8.05905
35.8817FPIAT Catherine57FRA1:44:377:29 8.03910
36.9631FGOVAERTS Sylvie50BELJCPMF SOMME-LEUZE1:45:117:31 7.99927
37.8006FBODART Marie Christine521:45:447:34 7.94945
38.9330FWILIQUET Claudine52BEL1:46:007:35 7.93950
39.9141FRENAUT Isabelle51FRAJOG LEERS1:46:337:37 7.88960
40.9513FCAPON Mathilde57FRA1:46:527:38 7.86980
41.8375FBOUILLOT Cecile58BELTRAILERS DES FAGNES1:46:597:39 7.85984
42.8210FPLUMIER Dominique58BELRUNNING TEAM CONDROZ1:48:237:45 7.751023
43.9012FDELANGRE Colette59BEL1:48:527:47 7.721035
44.9045FBARRAS Christine56FRAPHILIPPIDES CLUB TEMPLEUV1:49:037:48 7.701038
45.9779FDUICK Nathalie55FRA1:49:117:48 7.691044
46.8946FROWIES Christine54BEL1:49:317:50 7.671057
47.9933FDURIEUX Monique52FRA1:49:327:50 7.671058
48.9799FSPENDER Valerie50FRALILLE RUNNING TEAM1:49:397:50 7.661061
49.9257FDELOBELLE Isabelle51FRALILLE RUNNING TEAM1:49:397:50 7.661062
50.8929FCOUTELARD Annie56FRAPHILIPIDES TEMPLEUVE1:50:197:53 7.621069
51.8927FCASTEL Christelle52FRA1:50:307:54 7.601075
52.9015FFORTIN Corinne52FRA1:50:347:54 7.601078
53.9723FCOUVREUR Marie50BELVERTIGO1:50:407:55 7.591087
54.9581FCOKELAER Isabelle51FRA1:50:447:55 7.591090
55.9013FBOGAERT Catherine57BEL1:51:157:57 7.551105
56.8702FDUMOLIN Brigitte53FRA1:51:297:58 7.531118
57.8947FMALHERBE Christine58BEL1:51:558:00 7.511135
58.10079FELADARI Isabelle53FRALES FURIEUX DE L'AMIENOIS1:52:248:02 7.471152
59.9418FWALLEZ Isabelle52BEL1:52:598:05 7.441172
60.9745FCLERX Isabelle57BELSPHO1:53:258:07 7.411184
61.9727FTHAON Michelle58BELÉCLATÉS PÉRUWELZ1:53:468:08 7.381200
62.9220FLECRENIER Patricia52BELJCPMFFLV1:54:128:10 7.361207
63.8322FMIRANDA Sylvie51FRAATHLÉ RUNNING1:54:308:11 7.341221
64.8301FMADAU Annie52FRAFER RUNNING1:54:318:11 7.341223
65.8936FBRUNIN Marie-Line54BEL1:54:328:11 7.331226
66.10093FBERTRAND Laurence50BELJE COURS À INCOURT1:55:188:15 7.291256
67.8002FMAGNIER Beatrice58DECATHLON ST-MARTIN1:56:428:21 7.201315
68.8405FLUYCKX Catherine56FRAACCRORUN1:56:448:21 7.201318
69.8973FGASPARD Anne57BELACCRORUN1:56:448:21 7.201319
70.9027FLANDSHEERE Catherine59FRAASUD JOGGING1:57:018:22 7.181326
71.9752FTONON Florence51BELJCPMF FOSSES-LA-VILLE1:57:568:26 7.121351
72.9034FBICHU Claudine50FRALA FOULÉE PONT A MARCQ1:58:058:27 7.111356
72.9031FKODER Nadine55FRA1:58:058:27 7.111356
74.9320FMELCHERS Martine54FRAWATT FOOTING1:58:088:27 7.111359
75.9394FLEMILLE Martine56BELJC MONTAGNARD1:58:278:28 7.091366
76.8968FDEHOUST Marianne56BELTHEODO TEMPO1:58:318:28 7.091368
77.9044FLEVASSEUR Isabelle54FRA1:58:388:29 7.081372
78.8226FBONDOIS Laurence52FRA1:58:528:30 7.071383
79.8823FLAHR Marielle55BELJTRR1:59:058:31 7.051396
80.8945FEVLARD Brigitte55BEL1:59:088:31 7.051397
81.6398FRASSALLE Patricia50BEL1:59:428:33 7.021418
82.9544FDEWASTE Maryline59FRACOURIR À BAISIEUX1:59:458:34 7.011421
83.9431FBERLEMONT Isabelle53BELRAPTOR TEAM2:00:038:35 7.001432
84.8374FPIERRE Viviane51BEL2:00:128:36 6.991441
85.9102FDELLETTRE Anne50FRALES CINGLÉES2:00:158:36 6.991443
86.8102FFABRE Florane55FRA2:00:538:39 6.951459
87.9805FRUELLE-DIEU Fabienne50BEL2:01:168:40 6.931475
88.8955FVERLINDEN Karin56BEL2:01:508:43 6.891485
89.9058FBENARD Cecile53FRAARTOIS ATHLETISME2:01:588:43 6.891487
90.6304FDANGUY Christine54BEL2:02:148:44 6.871489
91.8005FMETZEN Isabelle53DECATHLON ST MARTIN2:02:328:46 6.861496
92.8251FLESAGE Annick50FRA2:02:328:46 6.861497
93.9404FKAYSER Francoise52LUC2:03:218:49 6.811513
94.9332FDELABY Grace51FRAH2R2:03:478:51 6.791522
95.8807FTIERRIE Sylvie58FRA2:04:138:53 6.761524
96.9300FJALET Marie51BELHUY JE COURE PARTOUT2:05:048:56 6.721538
97.9318FHULIN Marie-Christine55BELJOGING CLUB BAUDOUR2:05:118:57 6.711539
98.9003FFOULON Nathalie51FRA2:05:348:59 6.691542
99.9218FDELATTREE Isabelle57FRAMISTER FLOYD2:05:519:00 6.671546
100.8941FWAGENER Nathalie50BELJCHSH2:06:419:03 6.631557
101.8377FCOLLIGNON Mireille54BEL2:06:419:03 6.631558
102.8275FPAULUS Rolande59BELJCHSH2:06:419:03 6.631559
103.9744FJUSTE Pascaline59BELSPHO2:06:569:04 6.621567
104.9233FDAUDIER DE CASSINI Valerie53FRA2:07:069:05 6.611570
105.9205FCOLOMBANI Catherine59FRA2:08:339:11 6.531580
106.8930FREIMS Martine55BELJCPMFFLV2:11:009:22 6.411600
107.8919FDEVOS Chantal59FRALES FOULEES SAINGHINOISES2:13:049:31 6.311609
108.8826FNIJS Eva57BELACKO2:13:239:32 6.301610
109.8795FSTAS Katty53BELACKO2:13:239:32 6.301611
110.9232FMOUILLET Marie54FRA2:13:339:33 6.291612
111.8263FLECAT Pascale50BEL2:14:199:36 6.251613
112.9005FFILÉE Véronique54BEL2:15:129:40 6.211617
113.8421FPRADE Murielle52BELJCL2:18:599:56 6.041625
114.8420FVERGHOTE Sylviane51BELJCL2:19:199:58 6.031627
115.8099FDELCROIX Fabienne51FRAJCL2:19:199:58 6.031628
116.9371FSCHMETZ Joelle53BELJIA2:21:5710:09 5.921636
DNF8777FDELANNOY Marie-Annick57FRAPHILIPPIDES CLUB
DNF9322FSTOZICKY Sylvie58FRA
DNF: abandon; DSQ: disqualifié; Vitesse en km/h
Page: [1]